Time,TemperatureF,DewpointF,PressureIn,WindDirection,WindDirectionDegrees,WindSpeedMPH,WindSpeedGustMPH,Humidity,HourlyPrecipIn,Conditions,Clouds,dailyrainin,SoftwareType,DateUTC
2013-01-17 00:02:00,0.0,-15.2,30.17,NW,315,19.0,20.0,48,0.00,,,0.00,meteohub,2013-01-17 06:02:00,
2013-01-17 00:07:00,0.0,-15.2,30.18,NW,315,18.0,20.0,48,0.00,,,0.00,meteohub,2013-01-17 06:07:00,
2013-01-17 00:12:00,0.0,-15.2,30.18,NW,315,20.0,20.0,48,0.00,,,0.00,meteohub,2013-01-17 06:12:00,
2013-01-17 00:17:00,0.0,-15.2,30.18,NW,315,16.0,21.0,48,0.00,,,0.00,meteohub,2013-01-17 06:17:00,
2013-01-17 00:22:00,-0.2,-15.2,30.18,West,270,15.0,21.0,48,0.00,,,0.00,meteohub,2013-01-17 06:22:00,
2013-01-17 00:27:00,-0.2,-15.2,30.19,WNW,293,17.0,20.0,48,0.00,,,0.00,meteohub,2013-01-17 06:27:00,
2013-01-17 00:32:00,-0.4,-15.3,30.19,NW,315,15.0,19.0,48,0.00,,,0.00,meteohub,2013-01-17 06:32:00,
2013-01-17 00:38:00,-0.4,-15.3,30.18,NW,315,12.0,19.0,48,0.00,,,0.00,meteohub,2013-01-17 06:38:00,
2013-01-17 00:43:00,-0.6,-15.2,30.19,North,0,11.0,17.0,49,0.00,,,0.00,meteohub,2013-01-17 06:43:00,
2013-01-17 00:48:00,-0.6,-14.8,30.20,NW,315,11.0,17.0,50,0.00,,,0.00,meteohub,2013-01-17 06:48:00,
2013-01-17 00:53:00,-0.6,-14.8,30.20,West,270,12.0,14.0,50,0.00,,,0.00,meteohub,2013-01-17 06:53:00,
2013-01-17 00:58:00,-0.6,-14.8,30.20,West,270,11.0,14.0,50,0.00,,,0.00,meteohub,2013-01-17 06:58:00,
2013-01-17 01:03:00,-0.6,-15.2,30.20,West,270,8.0,14.0,49,0.00,,,0.00,meteohub,2013-01-17 07:03:00,
2013-01-17 01:09:00,-0.8,-15.3,30.21,West,270,8.0,14.0,49,0.00,,,0.00,meteohub,2013-01-17 07:09:00,
2013-01-17 01:14:00,-0.8,-15.3,30.21,West,270,8.0,12.0,49,0.00,,,0.00,meteohub,2013-01-17 07:14:00,
2013-01-17 01:19:00,-0.9,-15.5,30.21,West,270,8.0,10.0,49,0.00,,,0.00,meteohub,2013-01-17 07:19:00,
2013-01-17 01:24:00,-0.6,-15.2,30.21,West,270,12.0,12.0,49,0.00,,,0.00,meteohub,2013-01-17 07:24:00,
2013-01-17 01:29:00,-0.6,-15.2,30.21,West,270,11.0,12.0,49,0.00,,,0.00,meteohub,2013-01-17 07:29:00,
2013-01-17 01:34:00,-0.6,-15.2,30.21,West,270,11.0,13.0,49,0.00,,,0.00,meteohub,2013-01-17 07:34:00,
2013-01-17 01:39:00,-0.8,-15.3,30.21,West,270,15.0,15.0,49,0.00,,,0.00,meteohub,2013-01-17 07:39:00,
2013-01-17 01:44:00,-0.8,-15.3,30.20,West,270,11.0,14.0,49,0.00,,,0.00,meteohub,2013-01-17 07:44:00,
2013-01-17 01:49:00,-0.9,-15.5,30.21,West,270,12.0,15.0,49,0.00,,,0.00,meteohub,2013-01-17 07:49:00,
2013-01-17 01:55:00,-0.9,-15.5,30.21,West,270,11.0,15.0,49,0.00,,,0.00,meteohub,2013-01-17 07:55:00,
2013-01-17 02:00:00,-1.1,-15.7,30.21,West,270,11.0,13.0,49,0.00,,,0.00,meteohub,2013-01-17 08:00:00,
2013-01-17 02:05:00,-1.3,-15.9,30.21,West,270,12.0,14.0,49,0.00,,,0.00,meteohub,2013-01-17 08:05:00,
2013-01-17 02:10:00,-1.3,-15.9,30.21,West,270,13.0,14.0,49,0.00,,,0.00,meteohub,2013-01-17 08:10:00,
2013-01-17 02:15:00,-1.3,-15.9,30.21,West,270,11.0,14.0,49,0.00,,,0.00,meteohub,2013-01-17 08:15:00,
2013-01-17 02:20:00,-1.1,-15.7,30.22,West,270,17.0,17.0,49,0.00,,,0.00,meteohub,2013-01-17 08:20:00,
2013-01-17 02:25:00,-1.3,-15.9,30.22,West,270,16.0,17.0,49,0.00,,,0.00,meteohub,2013-01-17 08:25:00,
2013-01-17 02:30:00,-1.3,-15.9,30.22,West,270,16.0,17.0,49,0.00,,,0.00,meteohub,2013-01-17 08:30:00,
2013-01-17 02:35:00,-1.5,-16.1,30.22,West,270,12.0,17.0,49,0.00,,,0.00,meteohub,2013-01-17 08:35:00,
2013-01-17 02:40:00,-1.7,-16.2,30.22,West,270,15.0,17.0,49,0.00,,,0.00,meteohub,2013-01-17 08:40:00,
2013-01-17 02:45:00,-1.7,-16.2,30.22,West,270,15.0,17.0,49,0.00,,,0.00,meteohub,2013-01-17 08:45:00,
2013-01-17 02:51:00,-1.5,-16.1,30.22,West,270,17.0,17.0,49,0.00,,,0.00,meteohub,2013-01-17 08:51:00,
2013-01-17 02:56:00,-1.3,-15.9,30.23,West,270,15.0,20.0,49,0.00,,,0.00,meteohub,2013-01-17 08:56:00,
2013-01-17 03:01:00,-1.5,-16.4,30.23,West,270,15.0,20.0,48,0.00,,,0.00,meteohub,2013-01-17 09:01:00,
2013-01-17 03:06:00,-1.5,-16.4,30.23,West,270,14.0,20.0,48,0.00,,,0.00,meteohub,2013-01-17 09:06:00,
2013-01-17 03:11:00,-1.5,-16.4,30.23,West,270,18.0,18.0,48,0.00,,,0.00,meteohub,2013-01-17 09:11:00,
2013-01-17 03:16:00,-1.5,-17.3,30.24,West,270,16.0,20.0,46,0.00,,,0.00,meteohub,2013-01-17 09:16:00,
2013-01-17 03:21:00,-1.3,-17.1,30.24,West,270,17.0,20.0,46,0.00,,,0.00,meteohub,2013-01-17 09:21:00,
2013-01-17 03:27:00,-1.7,-17.9,30.25,West,270,18.0,20.0,45,0.00,,,0.00,meteohub,2013-01-17 09:27:00,
2013-01-17 03:32:00,-1.5,-17.7,30.25,West,270,15.0,18.0,45,0.00,,,0.00,meteohub,2013-01-17 09:32:00,
2013-01-17 03:37:00,-1.3,-17.9,30.25,West,270,15.0,18.0,44,0.00,,,0.00,meteohub,2013-01-17 09:37:00,
2013-01-17 03:42:00,-1.1,-17.9,30.25,NW,315,19.0,19.0,44,0.00,,,0.00,meteohub,2013-01-17 09:42:00,
2013-01-17 03:47:00,-0.8,-17.5,30.25,West,270,17.0,19.0,44,0.00,,,0.00,meteohub,2013-01-17 09:47:00,
2013-01-17 03:52:00,-0.4,-17.5,30.24,West,270,15.0,21.0,43,0.00,,,0.00,meteohub,2013-01-17 09:52:00,
2013-01-17 03:57:00,-0.4,-17.5,30.24,West,270,13.0,21.0,43,0.00,,,0.00,meteohub,2013-01-17 09:57:00,
2013-01-17 04:02:00,-0.2,-17.3,30.24,West,270,12.0,21.0,43,0.00,,,0.00,meteohub,2013-01-17 10:02:00,
2013-01-17 04:07:00,0.0,-17.1,30.23,NW,315,12.0,17.0,43,0.00,,,0.00,meteohub,2013-01-17 10:07:00,
2013-01-17 04:12:00,0.0,-17.1,30.23,NW,315,13.0,17.0,43,0.00,,,0.00,meteohub,2013-01-17 10:12:00,
2013-01-17 04:18:00,0.5,-16.8,30.22,West,270,14.0,17.0,43,0.00,,,0.00,meteohub,2013-01-17 10:18:00,
2013-01-17 04:23:00,0.5,-17.1,30.23,West,270,15.0,17.0,42,0.00,,,0.00,meteohub,2013-01-17 10:23:00,
2013-01-17 04:28:00,0.7,-17.0,30.23,West,270,11.0,17.0,42,0.00,,,0.00,meteohub,2013-01-17 10:28:00,
2013-01-17 04:33:00,1.2,-16.6,30.23,NW,315,15.0,17.0,42,0.00,,,0.00,meteohub,2013-01-17 10:33:00,
2013-01-17 04:38:00,1.2,-16.6,30.24,NW,315,13.0,17.0,42,0.00,,,0.00,meteohub,2013-01-17 10:38:00,
2013-01-17 04:43:00,1.4,-14.6,30.23,West,270,13.0,15.0,46,0.00,,,0.00,meteohub,2013-01-17 10:43:00,
2013-01-17 04:48:00,1.6,-14.1,30.23,WNW,293,11.0,15.0,47,0.00,,,0.00,meteohub,2013-01-17 10:48:00,
2013-01-17 04:54:00,1.4,-14.6,30.23,West,270,11.0,15.0,46,0.00,,,0.00,meteohub,2013-01-17 10:54:00,
2013-01-17 04:59:00,1.8,-13.9,30.23,West,270,8.0,15.0,47,0.00,,,0.00,meteohub,2013-01-17 10:59:00,
2013-01-17 05:04:00,1.8,-13.9,30.23,West,270,8.0,12.0,47,0.00,,,0.00,meteohub,2013-01-17 11:04:00,
2013-01-17 05:09:00,1.9,-13.7,30.24,West,270,5.0,11.0,47,0.00,,,0.00,meteohub,2013-01-17 11:09:00,
2013-01-17 05:14:00,2.1,-13.5,30.24,West,270,7.0,9.0,47,0.00,,,0.00,meteohub,2013-01-17 11:14:00,
2013-01-17 05:19:00,2.3,-13.4,30.24,West,270,11.0,11.0,47,0.00,,,0.00,meteohub,2013-01-17 11:19:00,
2013-01-17 05:24:00,2.3,-13.4,30.24,South,180,6.0,11.0,47,0.00,,,0.00,meteohub,2013-01-17 11:24:00,
2013-01-17 05:30:00,2.5,-13.2,30.25,West,270,11.0,11.0,47,0.00,,,0.00,meteohub,2013-01-17 11:30:00,
2013-01-17 05:35:00,2.5,-13.2,30.25,NW,315,8.0,11.0,47,0.00,,,0.00,meteohub,2013-01-17 11:35:00,
2013-01-17 05:40:00,2.7,-13.0,30.25,West,270,9.0,11.0,47,0.00,,,0.00,meteohub,2013-01-17 11:40:00,
2013-01-17 05:45:00,2.7,-13.0,30.24,West,270,11.0,11.0,47,0.00,,,0.00,meteohub,2013-01-17 11:45:00,
2013-01-17 05:50:00,2.8,-12.8,30.24,West,270,8.0,11.0,47,0.00,,,0.00,meteohub,2013-01-17 11:50:00,
2013-01-17 05:55:00,3.2,-13.0,30.24,West,270,7.0,11.0,46,0.00,,,0.00,meteohub,2013-01-17 11:55:00,
2013-01-17 06:00:00,3.4,-12.8,30.24,West,270,8.0,11.0,46,0.00,,,0.00,meteohub,2013-01-17 12:00:00,
2013-01-17 06:05:00,3.4,-12.3,30.22,West,270,8.0,9.0,47,0.00,,,0.00,meteohub,2013-01-17 12:05:00,
2013-01-17 06:11:00,3.6,-12.1,30.22,West,270,8.0,11.0,47,0.00,,,0.00,meteohub,2013-01-17 12:11:00,
2013-01-17 06:16:00,3.6,-12.1,30.22,SW,225,8.0,11.0,47,0.00,,,0.00,meteohub,2013-01-17 12:16:00,
2013-01-17 06:21:00,3.6,-12.1,30.23,West,270,11.0,11.0,47,0.00,,,0.00,meteohub,2013-01-17 12:21:00,
2013-01-17 06:27:00,3.6,-12.1,30.22,West,270,10.0,11.0,47,0.00,,,0.00,meteohub,2013-01-17 12:27:00,
2013-01-17 06:32:00,3.7,-11.9,30.22,NW,315,9.0,11.0,47,0.00,,,0.00,meteohub,2013-01-17 12:32:00,
2013-01-17 06:37:00,3.9,-11.7,30.23,West,270,10.0,11.0,47,0.00,,,0.00,meteohub,2013-01-17 12:37:00,
2013-01-17 06:42:00,3.9,-11.7,30.23,West,270,9.0,12.0,47,0.00,,,0.00,meteohub,2013-01-17 12:42:00,
2013-01-17 06:47:00,3.9,-11.7,30.22,SW,225,11.0,12.0,47,0.00,,,0.00,meteohub,2013-01-17 12:47:00,
2013-01-17 06:52:00,4.1,-11.2,30.23,West,270,11.0,13.0,48,0.00,,,0.00,meteohub,2013-01-17 12:52:00,
2013-01-17 06:57:00,4.1,-11.2,30.23,WNW,293,10.0,15.0,48,0.00,,,0.00,meteohub,2013-01-17 12:57:00,
2013-01-17 07:03:00,4.3,-11.0,30.22,SW,225,9.0,15.0,48,0.00,,,0.00,meteohub,2013-01-17 13:03:00,
2013-01-17 07:08:00,4.5,-10.8,30.23,SW,225,11.0,15.0,48,0.00,,,0.00,meteohub,2013-01-17 13:08:00,
2013-01-17 07:13:00,4.5,-10.8,30.22,SW,225,10.0,12.0,48,0.00,,,0.00,meteohub,2013-01-17 13:13:00,
2013-01-17 07:18:00,4.6,-10.7,30.22,SW,225,12.0,12.0,48,0.00,,,0.00,meteohub,2013-01-17 13:18:00,
2013-01-17 07:23:00,4.6,-10.7,30.22,SW,225,15.0,15.0,48,0.00,,,0.00,meteohub,2013-01-17 13:23:00,
2013-01-17 07:28:00,4.8,-10.7,30.22,SW,225,12.0,13.0,48,0.00,,,0.00,meteohub,2013-01-17 13:28:00,
2013-01-17 07:33:00,5.0,-10.8,30.22,SW,225,11.0,15.0,47,0.00,,,0.00,meteohub,2013-01-17 13:33:00,
2013-01-17 07:39:00,5.2,-10.3,30.21,SW,225,10.0,15.0,48,0.00,,,0.00,meteohub,2013-01-17 13:39:00,
2013-01-17 07:44:00,5.7,-9.8,30.21,South,180,10.0,12.0,48,0.00,,,0.00,meteohub,2013-01-17 13:44:00,
2013-01-17 07:49:00,5.7,-9.8,30.21,SW,225,9.0,11.0,48,0.00,,,0.00,meteohub,2013-01-17 13:49:00,
2013-01-17 07:54:00,5.7,-9.8,30.22,SW,225,12.0,12.0,48,0.00,,,0.00,meteohub,2013-01-17 13:54:00,
2013-01-17 07:59:00,5.9,-9.6,30.22,SW,225,11.0,12.0,48,0.00,,,0.00,meteohub,2013-01-17 13:59:00,
2013-01-17 08:04:00,6.1,-9.4,30.21,SW,225,8.0,12.0,48,0.00,,,0.00,meteohub,2013-01-17 14:04:00,
2013-01-17 08:09:00,6.3,-9.2,30.22,WSW,248,8.0,12.0,48,0.00,,,0.00,meteohub,2013-01-17 14:09:00,
2013-01-17 08:14:00,6.4,-9.0,30.22,SW,225,9.0,12.0,48,0.00,,,0.00,meteohub,2013-01-17 14:14:00,
2013-01-17 08:20:00,6.8,-8.7,30.21,South,180,10.0,31.0,48,0.00,,,0.00,meteohub,2013-01-17 14:20:00,
2013-01-17 08:25:00,7.2,-8.3,30.21,SW,225,8.0,31.0,48,0.00,,,0.00,meteohub,2013-01-17 14:25:00,
2013-01-17 08:30:00,7.7,-7.4,30.22,SW,225,8.0,31.0,49,0.00,,,0.00,meteohub,2013-01-17 14:30:00,
2013-01-17 08:35:00,7.9,-7.2,30.22,SW,225,8.0,10.0,49,0.00,,,0.00,meteohub,2013-01-17 14:35:00,
2013-01-17 08:40:00,8.1,-7.2,30.22,SW,225,8.0,9.0,49,0.00,,,0.00,meteohub,2013-01-17 14:40:00,
2013-01-17 08:45:00,8.4,-6.9,30.22,NE,45,8.0,9.0,49,0.00,,,0.00,meteohub,2013-01-17 14:45:00,
2013-01-17 08:51:00,8.8,-6.9,30.22,SW,225,6.0,9.0,48,0.00,,,0.00,meteohub,2013-01-17 14:51:00,
2013-01-17 08:56:00,9.1,-6.5,30.23,SW,225,6.0,8.0,48,0.00,,,0.00,meteohub,2013-01-17 14:56:00,
2013-01-17 09:01:00,9.5,-6.2,30.23,South,180,8.0,8.0,48,0.00,,,0.00,meteohub,2013-01-17 15:01:00,
2013-01-17 09:06:00,9.7,-6.2,30.24,SW,225,7.0,8.0,48,0.00,,,0.00,meteohub,2013-01-17 15:06:00,
2013-01-17 09:11:00,9.9,-6.0,30.25,SW,225,9.0,9.0,48,0.00,,,0.00,meteohub,2013-01-17 15:11:00,
2013-01-17 09:16:00,10.2,-5.6,30.24,SW,225,10.0,10.0,48,0.00,,,0.00,meteohub,2013-01-17 15:16:00,
2013-01-17 09:21:00,10.6,-3.6,30.24,SW,225,10.0,10.0,52,0.00,,,0.00,meteohub,2013-01-17 15:21:00,
2013-01-17 09:26:00,10.9,-3.3,30.25,SW,225,8.0,11.0,52,0.00,,,0.00,meteohub,2013-01-17 15:26:00,
2013-01-17 09:32:00,11.3,-2.9,30.25,SW,225,8.0,11.0,52,0.00,,,0.00,meteohub,2013-01-17 15:32:00,
2013-01-17 09:37:00,12.2,-2.0,30.25,West,270,8.0,11.0,52,0.00,,,0.00,meteohub,2013-01-17 15:37:00,
2013-01-17 09:42:00,12.4,-2.4,30.25,SW,225,8.0,10.0,51,0.00,,,0.00,meteohub,2013-01-17 15:42:00,
2013-01-17 09:47:00,12.7,-2.0,30.25,South,180,9.0,10.0,51,0.00,,,0.00,meteohub,2013-01-17 15:47:00,
2013-01-17 09:52:00,12.7,-2.0,30.26,SW,225,10.0,10.0,51,0.00,,,0.00,meteohub,2013-01-17 15:52:00,
2013-01-17 09:57:00,12.7,-2.4,30.25,SW,225,11.0,11.0,50,0.00,,,0.00,meteohub,2013-01-17 15:57:00,
2013-01-17 10:02:00,13.1,-2.0,30.26,South,180,11.0,11.0,50,0.00,,,0.00,meteohub,2013-01-17 16:02:00,
2013-01-17 10:07:00,13.8,-1.3,30.25,SW,225,9.0,12.0,50,0.00,,,0.00,meteohub,2013-01-17 16:07:00,
2013-01-17 10:12:00,14.4,-0.9,30.25,SW,225,7.0,12.0,50,0.00,,,0.00,meteohub,2013-01-17 16:12:00,
2013-01-17 10:18:00,14.5,-1.1,30.25,West,270,10.0,12.0,49,0.00,,,0.00,meteohub,2013-01-17 16:18:00,
2013-01-17 10:23:00,14.2,-1.8,30.26,SW,225,11.0,11.0,48,0.00,,,0.00,meteohub,2013-01-17 16:23:00,
2013-01-17 10:28:00,14.5,-1.7,30.26,NW,315,11.0,11.0,48,0.00,,,0.00,meteohub,2013-01-17 16:28:00,
2013-01-17 10:33:00,14.7,-1.5,30.26,SW,225,11.0,11.0,48,0.00,,,0.00,meteohub,2013-01-17 16:33:00,
2013-01-17 10:38:00,14.9,-1.3,30.26,SW,225,11.0,12.0,48,0.00,,,0.00,meteohub,2013-01-17 16:38:00,
2013-01-17 10:43:00,15.1,-1.1,30.26,NW,315,9.0,12.0,48,0.00,,,0.00,meteohub,2013-01-17 16:43:00,
2013-01-17 10:48:00,15.4,-0.8,30.26,SW,225,9.0,12.0,48,0.00,,,0.00,meteohub,2013-01-17 16:48:00,
2013-01-17 10:53:00,15.8,-0.4,30.26,West,270,11.0,12.0,48,0.00,,,0.00,meteohub,2013-01-17 16:53:00,
2013-01-17 10:59:00,16.3,0.1,30.26,SW,225,11.0,11.0,48,0.00,,,0.00,meteohub,2013-01-17 16:59:00,
2013-01-17 11:04:00,16.5,0.3,30.25,West,270,8.0,11.0,48,0.00,,,0.00,meteohub,2013-01-17 17:04:00,
2013-01-17 11:09:00,17.1,0.7,30.25,West,270,9.0,11.0,48,0.00,,,0.00,meteohub,2013-01-17 17:09:00,
2013-01-17 11:14:00,17.6,1.2,30.25,SW,225,11.0,11.0,48,0.00,,,0.00,meteohub,2013-01-17 17:14:00,
2013-01-17 11:19:00,17.8,1.4,30.25,NW,315,11.0,23.0,48,0.00,,,0.00,meteohub,2013-01-17 17:19:00,
2013-01-17 11:24:00,18.0,1.6,30.25,West,270,11.0,23.0,48,0.00,,,0.00,meteohub,2013-01-17 17:24:00,
2013-01-17 11:29:00,18.0,1.6,30.25,West,270,10.0,23.0,48,0.00,,,0.00,meteohub,2013-01-17 17:29:00,
2013-01-17 11:34:00,18.5,2.5,30.24,West,270,12.0,12.0,49,0.00,,,0.00,meteohub,2013-01-17 17:34:00,
2013-01-17 11:40:00,19.0,3.0,30.25,West,270,15.0,15.0,49,0.00,,,0.00,meteohub,2013-01-17 17:40:00,
2013-01-17 11:45:00,19.2,3.2,30.24,NW,315,11.0,12.0,49,0.00,,,0.00,meteohub,2013-01-17 17:45:00,
2013-01-17 11:50:00,19.0,3.4,30.24,West,270,14.0,15.0,50,0.00,,,0.00,meteohub,2013-01-17 17:50:00,
2013-01-17 11:55:00,19.0,3.4,30.25,West,270,15.0,17.0,50,0.00,,,0.00,meteohub,2013-01-17 17:55:00,
2013-01-17 12:00:00,19.6,6.1,30.25,West,270,16.0,17.0,55,0.00,,,0.00,meteohub,2013-01-17 18:00:00,
2013-01-17 12:05:00,19.6,6.1,30.25,West,270,18.0,18.0,55,0.00,,,0.00,meteohub,2013-01-17 18:05:00,
2013-01-17 12:10:00,19.6,6.1,30.25,West,270,15.0,18.0,55,0.00,,,0.00,meteohub,2013-01-17 18:10:00,
2013-01-17 12:15:00,19.9,6.8,30.24,West,270,16.0,18.0,56,0.00,,,0.00,meteohub,2013-01-17 18:15:00,
2013-01-17 12:21:00,20.5,7.7,30.24,West,270,14.0,18.0,57,0.00,,,0.00,meteohub,2013-01-17 18:21:00,
2013-01-17 12:26:00,20.5,7.7,30.23,West,270,15.0,16.0,57,0.00,,,0.00,meteohub,2013-01-17 18:26:00,
2013-01-17 12:31:00,20.5,8.1,30.23,West,270,13.0,16.0,58,0.00,,,0.00,meteohub,2013-01-17 18:31:00,
2013-01-17 12:36:00,21.4,9.0,30.24,West,270,12.0,15.0,58,0.00,,,0.00,meteohub,2013-01-17 18:36:00,
2013-01-17 12:41:00,21.6,9.1,30.24,West,270,17.0,17.0,58,0.00,,,0.00,meteohub,2013-01-17 18:41:00,
2013-01-17 12:46:00,21.2,8.4,30.24,West,270,15.0,17.0,57,0.00,,,0.00,meteohub,2013-01-17 18:46:00,
2013-01-17 12:51:00,20.7,8.6,30.24,West,270,21.0,21.0,59,0.00,,,0.00,meteohub,2013-01-17 18:51:00,
2013-01-17 12:57:00,20.8,9.5,30.24,NW,315,12.0,21.0,61,0.00,,,0.00,meteohub,2013-01-17 18:57:00,
2013-01-17 13:02:00,20.8,9.5,30.24,West,270,15.0,21.0,61,0.00,,,0.00,meteohub,2013-01-17 19:02:00,
2013-01-17 13:07:00,20.8,9.5,30.23,West,270,14.0,21.0,61,0.00,,,0.00,meteohub,2013-01-17 19:07:00,
2013-01-17 13:12:00,21.0,10.0,30.24,West,270,19.0,19.0,62,0.00,,,0.00,meteohub,2013-01-17 19:12:00,
2013-01-17 13:17:00,21.4,10.0,30.23,NW,315,11.0,19.0,61,0.00,,,0.00,meteohub,2013-01-17 19:17:00,
2013-01-17 13:22:00,21.9,10.6,30.24,NW,315,15.0,19.0,61,0.00,,,0.00,meteohub,2013-01-17 19:22:00,
2013-01-17 13:27:00,21.4,9.7,30.23,West,270,19.0,19.0,60,0.00,,,0.00,meteohub,2013-01-17 19:27:00,
2013-01-17 13:32:00,21.0,9.7,30.23,NW,315,18.0,20.0,61,0.00,,,0.00,meteohub,2013-01-17 19:32:00,
2013-01-17 13:37:00,21.2,9.9,30.23,West,270,17.0,20.0,61,0.00,,,0.00,meteohub,2013-01-17 19:37:00,
2013-01-17 13:43:00,21.4,10.0,30.24,NW,315,17.0,20.0,61,0.00,,,0.00,meteohub,2013-01-17 19:43:00,
2013-01-17 13:48:00,21.0,10.0,30.23,NW,315,21.0,21.0,62,0.00,,,0.00,meteohub,2013-01-17 19:48:00,
2013-01-17 13:53:00,21.0,10.0,30.22,West,270,15.0,21.0,62,0.00,,,0.00,meteohub,2013-01-17 19:53:00,
2013-01-17 13:58:00,20.7,9.7,30.23,NW,315,16.0,21.0,62,0.00,,,0.00,meteohub,2013-01-17 19:58:00,
2013-01-17 14:03:00,21.2,9.9,30.23,West,270,14.0,21.0,61,0.00,,,0.00,meteohub,2013-01-17 20:03:00,
2013-01-17 14:08:00,21.0,10.0,30.23,NW,315,17.0,19.0,62,0.00,,,0.00,meteohub,2013-01-17 20:08:00,
2013-01-17 14:14:00,21.6,10.2,30.22,NW,315,16.0,21.0,61,0.00,,,0.00,meteohub,2013-01-17 20:14:00,
2013-01-17 14:19:00,21.2,9.9,30.23,West,270,19.0,21.0,61,0.00,,,0.00,meteohub,2013-01-17 20:19:00,
2013-01-17 14:24:00,20.8,9.9,30.23,NW,315,22.0,22.0,62,0.00,,,0.00,meteohub,2013-01-17 20:24:00,
2013-01-17 14:29:00,20.7,9.7,30.24,North,0,21.0,21.0,62,0.00,,,0.00,meteohub,2013-01-17 20:29:00,
2013-01-17 14:34:00,20.7,9.7,30.24,NW,315,17.0,23.0,62,0.00,,,0.00,meteohub,2013-01-17 20:34:00,
2013-01-17 14:39:00,20.5,9.9,30.24,NW,315,15.0,23.0,63,0.00,,,0.00,meteohub,2013-01-17 20:39:00,
2013-01-17 14:44:00,20.7,10.0,30.24,West,270,19.0,23.0,63,0.00,,,0.00,meteohub,2013-01-17 20:44:00,
2013-01-17 14:49:00,20.5,9.9,30.24,WNW,293,17.0,20.0,63,0.00,,,0.00,meteohub,2013-01-17 20:49:00,
2013-01-17 14:55:00,21.0,10.4,30.24,NW,315,21.0,21.0,63,0.00,,,0.00,meteohub,2013-01-17 20:55:00,
2013-01-17 15:00:00,20.7,10.0,30.24,West,270,23.0,23.0,63,0.00,,,0.00,meteohub,2013-01-17 21:00:00,
2013-01-17 15:05:00,20.1,9.5,30.23,NW,315,17.0,23.0,63,0.00,,,0.00,meteohub,2013-01-17 21:05:00,
2013-01-17 15:10:00,20.3,9.7,30.24,NW,315,17.0,23.0,63,0.00,,,0.00,meteohub,2013-01-17 21:10:00,
2013-01-17 15:15:00,20.3,9.7,30.24,WNW,293,21.0,22.0,63,0.00,,,0.00,meteohub,2013-01-17 21:15:00,
2013-01-17 15:21:00,20.1,9.5,30.23,WNW,293,17.0,21.0,63,0.00,,,0.00,meteohub,2013-01-17 21:21:00,
2013-01-17 15:26:00,19.9,9.0,30.24,NW,315,17.0,21.0,62,0.00,,,0.00,meteohub,2013-01-17 21:26:00,
2013-01-17 15:31:00,19.8,8.8,30.24,North,0,18.0,21.0,62,0.00,,,0.00,meteohub,2013-01-17 21:31:00,
2013-01-17 15:36:00,19.6,8.6,30.25,NW,315,20.0,21.0,62,0.00,,,0.00,meteohub,2013-01-17 21:36:00,
2013-01-17 15:41:00,19.2,6.8,30.24,WNW,293,17.0,20.0,58,0.00,,,0.00,meteohub,2013-01-17 21:41:00,
2013-01-17 15:46:00,18.9,6.4,30.24,NW,315,18.0,21.0,58,0.00,,,0.00,meteohub,2013-01-17 21:46:00,
2013-01-17 15:52:00,18.7,6.4,30.24,NW,315,18.0,21.0,58,0.00,,,0.00,meteohub,2013-01-17 21:52:00,
2013-01-17 15:57:00,18.7,6.4,30.24,North,0,17.0,21.0,58,0.00,,,0.00,meteohub,2013-01-17 21:57:00,
2013-01-17 16:02:00,18.5,6.3,30.23,NW,315,14.0,18.0,58,0.00,,,0.00,meteohub,2013-01-17 22:02:00,
2013-01-17 16:07:00,18.3,6.1,30.24,North,0,15.0,18.0,58,0.00,,,0.00,meteohub,2013-01-17 22:07:00,
2013-01-17 16:12:00,18.1,5.5,30.24,North,0,15.0,17.0,57,0.00,,,0.00,meteohub,2013-01-17 22:12:00,
2013-01-17 16:17:00,18.1,5.5,30.24,North,0,13.0,16.0,57,0.00,,,0.00,meteohub,2013-01-17 22:17:00,
2013-01-17 16:22:00,18.0,5.0,30.24,North,0,15.0,16.0,56,0.00,,,0.00,meteohub,2013-01-17 22:22:00,
2013-01-17 16:27:00,18.0,5.0,30.25,NW,315,15.0,15.0,56,0.00,,,0.00,meteohub,2013-01-17 22:27:00,
2013-01-17 16:32:00,17.6,4.6,30.25,NW,315,15.0,15.0,56,0.00,,,0.00,meteohub,2013-01-17 22:32:00,
2013-01-17 16:37:00,17.4,4.5,30.25,NNW,338,16.0,16.0,56,0.00,,,0.00,meteohub,2013-01-17 22:37:00,
2013-01-17 16:42:00,17.2,4.3,30.25,North,0,14.0,16.0,56,0.00,,,0.00,meteohub,2013-01-17 22:42:00,
2013-01-17 16:48:00,17.1,4.1,30.24,North,0,14.0,16.0,56,0.00,,,0.00,meteohub,2013-01-17 22:48:00,
2013-01-17 16:53:00,16.9,3.9,30.25,NW,315,11.0,16.0,56,0.00,,,0.00,meteohub,2013-01-17 22:53:00,
2013-01-17 16:58:00,16.7,4.1,30.24,North,0,11.0,15.0,57,0.00,,,0.00,meteohub,2013-01-17 22:58:00,
2013-01-17 17:03:00,16.7,4.5,30.25,North,0,11.0,15.0,58,0.00,,,0.00,meteohub,2013-01-17 23:03:00,
2013-01-17 17:08:00,16.5,3.9,30.25,NW,315,11.0,13.0,57,0.00,,,0.00,meteohub,2013-01-17 23:08:00,
2013-01-17 17:13:00,16.5,3.9,30.25,North,0,11.0,13.0,57,0.00,,,0.00,meteohub,2013-01-17 23:13:00,
2013-01-17 17:18:00,16.3,3.4,30.25,North,0,10.0,13.0,56,0.00,,,0.00,meteohub,2013-01-17 23:18:00,
2013-01-17 17:23:00,16.2,3.2,30.25,West,270,9.0,12.0,56,0.00,,,0.00,meteohub,2013-01-17 23:23:00,
2013-01-17 17:28:00,16.2,3.2,30.25,NW,315,11.0,12.0,56,0.00,,,0.00,meteohub,2013-01-17 23:28:00,
2013-01-17 17:33:00,16.2,3.2,30.24,West,270,9.0,11.0,56,0.00,,,0.00,meteohub,2013-01-17 23:33:00,
2013-01-17 17:38:00,16.0,3.4,30.25,NW,315,10.0,12.0,57,0.00,,,0.00,meteohub,2013-01-17 23:38:00,
2013-01-17 17:44:00,15.8,2.8,30.24,NW,315,11.0,12.0,56,0.00,,,0.00,meteohub,2013-01-17 23:44:00,
2013-01-17 17:49:00,15.8,2.5,30.25,NW,315,11.0,12.0,55,0.00,,,0.00,meteohub,2013-01-17 23:49:00,
2013-01-17 17:54:00,15.8,2.5,30.24,NW,315,6.0,11.0,55,0.00,,,0.00,meteohub,2013-01-17 23:54:00,
2013-01-17 17:59:00,15.6,2.7,30.23,West,270,5.0,11.0,56,0.00,,,0.00,meteohub,2013-01-17 23:59:00,
2013-01-17 18:04:00,15.4,2.1,30.24,West,270,6.0,11.0,55,0.00,,,0.00,meteohub,2013-01-18 00:04:00,
2013-01-17 18:09:00,15.4,1.8,30.23,West,270,5.0,11.0,54,0.00,,,0.00,meteohub,2013-01-18 00:09:00,
2013-01-17 18:14:00,15.6,1.9,30.23,West,270,4.0,8.0,54,0.00,,,0.00,meteohub,2013-01-18 00:14:00,
2013-01-17 18:20:00,15.4,1.4,30.24,West,270,5.0,8.0,53,0.00,,,0.00,meteohub,2013-01-18 00:20:00,
2013-01-17 18:25:00,15.4,1.4,30.23,NW,315,6.0,7.0,53,0.00,,,0.00,meteohub,2013-01-18 00:25:00,
2013-01-17 18:30:00,15.4,1.4,30.23,North,0,6.0,8.0,53,0.00,,,0.00,meteohub,2013-01-18 00:30:00,
2013-01-17 18:35:00,15.4,1.4,30.24,North,0,7.0,8.0,53,0.00,,,0.00,meteohub,2013-01-18 00:35:00,
2013-01-17 18:40:00,15.4,1.4,30.22,North,0,8.0,8.0,53,0.00,,,0.00,meteohub,2013-01-18 00:40:00,
2013-01-17 18:45:00,15.3,1.2,30.22,NW,315,5.0,8.0,53,0.00,,,0.00,meteohub,2013-01-18 00:45:00,
2013-01-17 18:51:00,15.6,1.0,30.22,North,0,6.0,8.0,52,0.00,,,0.00,meteohub,2013-01-18 00:51:00,
2013-01-17 18:56:00,15.6,1.0,30.22,NW,315,4.0,8.0,52,0.00,,,0.00,meteohub,2013-01-18 00:56:00,
2013-01-17 19:01:00,15.8,0.5,30.23,North,0,6.0,7.0,50,0.00,,,0.00,meteohub,2013-01-18 01:01:00,
2013-01-17 19:06:00,15.4,0.5,30.22,NW,315,5.0,7.0,51,0.00,,,0.00,meteohub,2013-01-18 01:06:00,
2013-01-17 19:11:00,15.4,0.5,30.22,NW,315,6.0,7.0,51,0.00,,,0.00,meteohub,2013-01-18 01:11:00,
2013-01-17 19:16:00,15.4,0.5,30.22,NW,315,6.0,7.0,51,0.00,,,0.00,meteohub,2013-01-18 01:16:00,
2013-01-17 19:21:00,15.3,0.3,30.22,NW,315,8.0,8.0,51,0.00,,,0.00,meteohub,2013-01-18 01:21:00,
2013-01-17 19:26:00,15.3,0.3,30.22,West,270,6.0,8.0,51,0.00,,,0.00,meteohub,2013-01-18 01:26:00,
2013-01-17 19:31:00,15.3,0.3,30.22,NW,315,3.0,8.0,51,0.00,,,0.00,meteohub,2013-01-18 01:31:00,
2013-01-17 19:37:00,15.3,0.9,30.22,NW,315,4.0,8.0,52,0.00,,,0.00,meteohub,2013-01-18 01:37:00,
2013-01-17 19:42:00,15.4,1.0,30.21,West,270,4.0,6.0,52,0.00,,,0.00,meteohub,2013-01-18 01:42:00,
2013-01-17 19:47:00,15.4,1.0,30.22,West,270,4.0,4.0,52,0.00,,,0.00,meteohub,2013-01-18 01:47:00,
2013-01-17 19:52:00,15.4,1.0,30.21,North,0,3.0,4.0,52,0.00,,,0.00,meteohub,2013-01-18 01:52:00,
2013-01-17 19:57:00,15.4,1.0,30.21,NE,45,4.0,4.0,52,0.00,,,0.00,meteohub,2013-01-18 01:57:00,
2013-01-17 20:02:00,15.3,1.2,30.21,NE,45,4.0,4.0,53,0.00,,,0.00,meteohub,2013-01-18 02:02:00,
2013-01-17 20:08:00,15.3,1.2,30.21,North,0,2.0,4.0,53,0.00,,,0.00,meteohub,2013-01-18 02:08:00,
2013-01-17 20:13:00,15.1,1.0,30.20,NE,45,2.0,4.0,53,0.00,,,0.00,meteohub,2013-01-18 02:13:00,
2013-01-17 20:18:00,15.3,1.2,30.20,NE,45,0.0,4.0,53,0.00,,,0.00,meteohub,2013-01-18 02:18:00,
2013-01-17 20:23:00,15.3,1.2,30.21,SE,135,2.0,2.0,53,0.00,,,0.00,meteohub,2013-01-18 02:23:00,
2013-01-17 20:28:00,15.3,1.2,30.21,SE,135,2.0,2.0,53,0.00,,,0.00,meteohub,2013-01-18 02:28:00,
2013-01-17 20:33:00,15.3,1.6,30.20,SE,135,2.0,2.0,54,0.00,,,0.00,meteohub,2013-01-18 02:33:00,
2013-01-17 20:39:00,15.3,1.6,30.19,SE,135,0.0,2.0,54,0.00,,,0.00,meteohub,2013-01-18 02:39:00,
2013-01-17 20:44:00,15.4,1.8,30.19,South,180,2.0,2.0,54,0.00,,,0.00,meteohub,2013-01-18 02:44:00,
2013-01-17 20:49:00,15.4,1.8,30.18,SE,135,4.0,4.0,54,0.00,,,0.00,meteohub,2013-01-18 02:49:00,
2013-01-17 20:55:00,15.4,1.8,30.18,SE,135,5.0,5.0,54,0.00,,,0.00,meteohub,2013-01-18 02:55:00,
2013-01-17 21:00:00,15.6,1.9,30.18,SE,135,4.0,5.0,54,0.00,,,0.00,meteohub,2013-01-18 03:00:00,
2013-01-17 21:05:00,15.6,2.3,30.18,SE,135,4.0,5.0,55,0.00,,,0.00,meteohub,2013-01-18 03:05:00,
2013-01-17 21:10:00,15.6,2.3,30.18,East,90,5.0,5.0,55,0.00,,,0.00,meteohub,2013-01-18 03:10:00,
2013-01-17 21:15:00,15.4,1.8,30.17,NE,45,5.0,6.0,54,0.00,,,0.00,meteohub,2013-01-18 03:15:00,
2013-01-17 21:20:00,15.4,1.8,30.17,East,90,4.0,10.0,54,0.00,,,0.00,meteohub,2013-01-18 03:20:00,
2013-01-17 21:25:00,15.4,2.1,30.17,SE,135,6.0,10.0,55,0.00,,,0.00,meteohub,2013-01-18 03:25:00,
2013-01-17 21:30:00,15.4,2.1,30.17,SE,135,7.0,10.0,55,0.00,,,0.00,meteohub,2013-01-18 03:30:00,
2013-01-17 21:36:00,15.6,2.3,30.17,SE,135,5.0,8.0,55,0.00,,,0.00,meteohub,2013-01-18 03:36:00,
2013-01-17 21:41:00,15.6,2.3,30.17,SE,135,6.0,8.0,55,0.00,,,0.00,meteohub,2013-01-18 03:41:00,
2013-01-17 21:46:00,15.6,2.3,30.16,SE,135,7.0,8.0,55,0.00,,,0.00,meteohub,2013-01-18 03:46:00,
2013-01-17 21:51:00,15.6,1.9,30.16,SE,135,4.0,7.0,54,0.00,,,0.00,meteohub,2013-01-18 03:51:00,
2013-01-17 21:56:00,15.6,1.9,30.15,SE,135,5.0,7.0,54,0.00,,,0.00,meteohub,2013-01-18 03:56:00,
2013-01-17 22:01:00,15.6,1.9,30.16,SE,135,7.0,7.0,54,0.00,,,0.00,meteohub,2013-01-18 04:01:00,
2013-01-17 22:07:00,15.6,1.9,30.16,SE,135,6.0,7.0,54,0.00,,,0.00,meteohub,2013-01-18 04:07:00,
2013-01-17 22:12:00,15.8,1.8,30.14,SE,135,8.0,8.0,53,0.00,,,0.00,meteohub,2013-01-18 04:12:00,
2013-01-17 22:17:00,15.8,1.8,30.14,SE,135,7.0,8.0,53,0.00,,,0.00,meteohub,2013-01-18 04:17:00,
2013-01-17 22:22:00,15.8,1.8,30.14,SE,135,8.0,8.0,53,0.00,,,0.00,meteohub,2013-01-18 04:22:00,
2013-01-17 22:27:00,15.8,1.8,30.13,SE,135,8.0,8.0,53,0.00,,,0.00,meteohub,2013-01-18 04:27:00,
2013-01-17 22:32:00,16.0,1.9,30.12,SE,135,8.0,8.0,53,0.00,,,0.00,meteohub,2013-01-18 04:32:00,
2013-01-17 22:37:00,16.0,2.3,30.12,SE,135,8.0,8.0,54,0.00,,,0.00,meteohub,2013-01-18 04:37:00,
2013-01-17 22:43:00,16.0,2.3,30.12,SE,135,9.0,9.0,54,0.00,,,0.00,meteohub,2013-01-18 04:43:00,
2013-01-17 22:48:00,16.2,2.8,30.11,SE,135,10.0,11.0,55,0.00,,,0.00,meteohub,2013-01-18 04:48:00,
2013-01-17 22:53:00,16.2,2.8,30.10,SE,135,13.0,13.0,55,0.00,,,0.00,meteohub,2013-01-18 04:53:00,
2013-01-17 22:58:00,16.3,3.4,30.11,SE,135,10.0,12.0,56,0.00,,,0.00,meteohub,2013-01-18 04:58:00,
2013-01-17 23:01:00,16.3,3.4,30.11,SE,135,12.0,12.0,56,0.00,,,0.00,meteohub,2013-01-18 05:01:00,
2013-01-17 23:02:00,16.3,3.4,30.11,SE,135,11.0,13.0,56,0.00,,,0.00,meteohub,2013-01-18 05:02:00,
2013-01-17 23:04:00,16.3,3.7,30.11,SE,135,10.0,13.0,57,0.00,,,0.00,meteohub,2013-01-18 05:04:00,
2013-01-17 23:09:00,16.3,3.7,30.11,SE,135,11.0,13.0,57,0.00,,,0.00,meteohub,2013-01-18 05:09:00,
2013-01-17 23:14:00,16.5,3.9,30.10,SE,135,11.0,12.0,57,0.00,,,0.00,meteohub,2013-01-18 05:14:00,
2013-01-17 23:19:00,16.7,4.5,30.10,SE,135,11.0,12.0,58,0.00,,,0.00,meteohub,2013-01-18 05:19:00,
2013-01-17 23:24:00,16.7,4.5,30.09,SE,135,10.0,11.0,58,0.00,,,0.00,meteohub,2013-01-18 05:24:00,
2013-01-17 23:29:00,16.9,4.6,30.09,SE,135,11.0,11.0,58,0.00,,,0.00,meteohub,2013-01-18 05:29:00,
2013-01-17 23:35:00,17.1,5.2,30.08,SE,135,12.0,12.0,59,0.00,,,0.00,meteohub,2013-01-18 05:35:00,
2013-01-17 23:40:00,17.1,5.2,30.08,SE,135,14.0,14.0,59,0.00,,,0.00,meteohub,2013-01-18 05:40:00,
2013-01-17 23:45:00,17.2,5.4,30.08,SE,135,12.0,14.0,59,0.00,,,0.00,meteohub,2013-01-18 05:45:00,
2013-01-17 23:50:00,17.2,5.4,30.07,SE,135,12.0,14.0,59,0.00,,,0.00,meteohub,2013-01-18 05:50:00,
2013-01-17 23:55:00,17.4,5.5,30.07,SE,135,11.0,15.0,59,0.00,,,0.00,meteohub,2013-01-18 05:55:00,